| time (UTC) | temp F | wind direction | speed knots | gust knots | rain 1hr in | rain 24hr in | rain mn in | humidity % | barometer mb |
| 20260507070004 | 56 | 330 | 0.0 | 7.0 | 0.00 | 0.00 | 0.00 | 100 | 999.5 |
| 20260507065503 | 56 | 292 | 3.5 | 6.1 | 0.00 | 0.00 | 0.00 | 100 | 999.5 |
| 20260507065002 | 56 | 262 | 0.0 | 4.3 | 0.00 | 0.00 | 0.00 | 100 | 999.4 |
| 20260507064459 | 56 | 342 | 0.0 | 5.2 | 0.00 | 0.00 | 0.00 | 100 | 999.4 |
| 20260507063959 | 55 | 309 | 4.3 | 4.3 | 0.00 | 0.00 | 0.00 | 100 | 999.3 |
| 20260507063459 | 55 | 331 | 1.7 | 3.5 | 0.00 | 0.00 | 0.00 | 100 | 999.3 |
| 20260507063000 | 55 | 332 | 0.0 | 2.6 | 0.00 | 0.00 | 0.00 | 100 | 999.2 |
| 20260507062500 | 55 | 327 | 0.0 | 3.5 | 0.00 | 0.00 | 0.00 | 100 | 999.3 |
| 20260507062000 | 55 | 315 | 0.0 | 4.3 | 0.00 | 0.00 | 0.00 | 100 | 999.2 |
| 20260507061500 | 55 | 275 | 0.0 | 4.3 | 0.00 | 0.00 | 0.00 | 100 | 999.3 |
| 20260507060959 | 54 | 360 | 0.9 | 2.6 | 0.00 | 0.00 | 0.00 | 100 | 999.1 |
| 20260507060501 | 54 | 309 | 0.0 | 1.7 | 0.00 | 0.00 | 0.00 | 100 | 999.3 |
| 20260507060003 | 54 | 311 | 0.0 | 1.7 | 0.00 | 0.00 | 0.00 | 100 | 999.1 |
| 20260507055502 | 55 | 329 | 0.9 | 1.7 | 0.00 | 0.00 | 0.00 | 100 | 999.1 |
| 20260507054959 | 55 | 340 | 1.7 | 2.6 | 0.00 | 0.00 | 0.00 | 100 | 999.1 |
| 20260507054459 | 55 | 292 | 0.0 | 4.3 | 0.00 | 0.00 | 0.00 | 100 | 999.1 |
| 20260507053500 | 55 | 327 | 0.0 | 7.0 | 0.00 | 0.00 | 0.00 | 100 | 999.0 |
| 20260507053001 | 55 | 346 | 3.5 | 7.0 | 0.00 | 0.00 | 0.00 | 100 | 999.2 |
| 20260507051959 | 55 | 329 | 2.6 | 11.3 | 0.00 | 0.00 | 0.00 | 100 | 998.9 |
| 20260507051500 | 55 | 339 | 2.6 | 11.3 | 0.00 | 0.00 | 0.00 | 100 | 999.0 |
| 20260507050459 | 55 | 320 | 5.2 | 10.4 | 0.00 | 0.00 | 0.00 | 100 | 998.9 |
| 20260507050004 | 55 | 327 | 2.6 | 10.4 | 0.00 | 0.00 | 0.00 | 100 | 998.9 |
| 20260507045500 | 55 | 360 | 5.2 | 9.6 | 0.00 | 0.00 | 0.00 | 100 | 998.9 |
| 20260507045000 | 55 | 311 | 1.7 | 9.6 | 0.00 | 0.00 | 0.00 | 100 | 998.8 |
| 20260507044500 | 55 | 315 | 1.7 | 9.6 | 0.00 | 0.00 | 0.00 | 100 | 998.8 |
| 20260507044000 | 55 | 308 | 6.1 | 11.3 | 0.00 | 0.00 | 0.00 | 100 | 998.7 |
| 20260507043500 | 55 | 327 | 1.7 | 11.3 | 0.00 | 0.00 | 0.00 | 100 | 998.8 |
| 20260507042959 | 55 | 355 | 0.9 | 13.0 | 0.00 | 0.00 | 0.00 | 100 | 998.7 |
| 20260507042500 | 55 | 350 | 5.2 | 13.0 | 0.00 | 0.00 | 0.00 | 100 | 998.7 |
| 20260507041500 | 55 | 331 | 5.2 | 12.2 | 0.00 | 0.00 | 0.00 | 100 | 998.7 |
| 20260507041000 | 55 | 348 | 4.3 | 9.6 | 0.00 | 0.00 | 0.00 | 100 | 998.8 |
| 20260507040500 | 55 | 355 | 0.0 | 12.2 | 0.00 | 0.00 | 0.00 | 100 | 998.8 |
| 20260507035459 | 55 | 338 | 4.3 | 12.2 | 0.00 | 0.00 | 0.00 | 100 | 999.0 |
| 20260507034459 | 55 | 340 | 4.3 | 12.2 | 0.00 | 0.00 | 0.00 | 100 | 999.1 |
| 20260507033959 | 55 | 330 | 4.3 | 10.4 | 0.00 | 0.00 | 0.00 | 100 | 999.1 |
| 20260507033459 | 55 | 309 | 6.1 | 11.3 | 0.00 | 0.00 | 0.00 | 100 | 999.1 |
| 20260507032959 | 55 | 315 | 0.0 | 12.2 | 0.00 | 0.00 | 0.00 | 100 | 999.2 |
| 20260507032000 | 55 | 329 | 2.6 | 11.3 | 0.00 | 0.00 | 0.00 | 100 | 999.3 |
| 20260507031459 | 55 | 309 | 7.0 | 11.3 | 0.00 | 0.00 | 0.00 | 100 | 999.2 |
| 20260507030500 | 55 | 340 | 3.5 | 15.6 | 0.00 | 0.00 | 0.00 | 100 | 999.3 |
| 20260507030003 | 55 | 336 | 7.0 | 15.6 | 0.00 | 0.00 | 0.00 | 100 | 999.4 |
| 20260507025459 | 55 | 336 | 7.8 | 12.2 | 0.00 | 0.00 | 0.00 | 100 | 999.2 |
| 20260507024959 | 55 | 344 | 3.5 | 12.2 | 0.00 | 0.00 | 0.00 | 100 | 999.3 |
| 20260507024500 | 55 | 328 | 5.2 | 12.2 | 0.00 | 0.00 | 0.00 | 100 | 999.1 |
| 20260507024000 | 55 | 344 | 4.3 | 12.2 | 0.00 | 0.00 | 0.00 | 100 | 999.3 |
| 20260507023459 | 55 | 337 | 7.0 | 12.2 | 0.00 | 0.00 | 0.00 | 100 | 999.2 |
| 20260507022959 | 55 | 311 | 7.0 | 15.6 | 0.00 | 0.00 | 0.00 | 100 | 999.4 |
| 20260507022459 | 55 | 338 | 8.7 | 14.8 | 0.00 | 0.00 | 0.00 | 100 | 999.3 |
| 20260507021959 | 55 | 360 | 4.3 | 13.0 | 0.00 | 0.00 | 0.00 | 100 | 999.4 |
| 20260507021459 | 55 | 311 | 2.6 | 13.0 | 0.00 | 0.00 | 0.00 | 100 | 999.4 |
| 20260507020959 | 55 | 322 | 7.0 | 10.4 | 0.00 | 0.00 | 0.00 | 100 | 999.4 |
| 20260507020459 | 55 | 343 | 3.5 | 10.4 | 0.00 | 0.00 | 0.00 | 100 | 999.5 |
| 20260507020002 | 56 | 321 | 1.7 | 12.2 | 0.00 | 0.00 | 0.00 | 100 | 999.4 |
| 20260507015459 | 56 | 355 | 7.8 | 13.9 | 0.00 | 0.00 | 0.00 | 100 | 999.6 |
| 20260507014959 | 56 | 346 | 4.3 | 13.9 | 0.00 | 0.00 | 0.00 | 100 | 999.5 |
| 20260507014500 | 56 | 348 | 2.6 | 14.8 | 0.00 | 0.00 | 0.00 | 100 | 999.6 |
| 20260507013959 | 56 | 340 | 2.6 | 14.8 | 0.00 | 0.00 | 0.00 | 100 | 999.7 |
| 20260507013500 | 56 | 355 | 7.8 | 13.9 | 0.00 | 0.00 | 0.00 | 100 | 999.6 |
| 20260507013003 | 56 | 342 | 3.5 | 17.4 | 0.00 | 0.00 | 0.00 | 100 | 999.6 |
| 20260507012459 | 56 | 11 | 9.6 | 17.4 | 0.00 | 0.00 | 0.00 | 100 | 999.7 |
| 20260507011502 | 56 | 342 | 3.5 | 13.9 | 0.00 | 0.00 | 0.00 | 100 | 999.7 |
| 20260507011000 | 56 | 5 | 12.2 | 13.9 | 0.00 | 0.00 | 0.00 | 100 | 999.7 |
| 20260507010459 | 56 | 346 | 4.3 | 13.9 | 0.00 | 0.00 | 0.00 | 100 | 999.8 |
| 20260507005000 | 56 | 346 | 5.2 | 14.8 | 0.00 | 0.00 | 0.00 | 100 | 999.9 |
| 20260507004459 | 56 | 329 | 8.7 | 16.5 | 0.00 | 0.00 | 0.00 | 100 | 999.7 |
| 20260507003959 | 56 | 336 | 3.5 | 16.5 | 0.00 | 0.00 | 0.00 | 100 | 999.7 |
| 20260507003500 | 56 | 355 | 8.7 | 12.2 | 0.00 | 0.00 | 0.00 | 100 | 999.8 |
| 20260507003002 | 56 | 346 | 1.7 | 11.3 | 0.00 | 0.00 | 0.00 | 100 | 999.8 |
| 20260507002502 | 56 | 344 | 4.3 | 12.2 | 0.00 | 0.00 | 0.00 | 100 | 999.9 |
| 20260507001959 | 56 | 310 | 3.5 | 12.2 | 0.00 | 0.00 | 0.00 | 100 | 999.8 |
| 20260507001500 | 56 | 333 | 10.4 | 14.8 | 0.00 | 0.00 | 0.00 | 100 | 1000.1 |
| 20260507000500 | 56 | 338 | 3.5 | 13.9 | 0.00 | 0.00 | 0.00 | 100 | 1000.0 |
| 20260507000002 | 56 | 355 | 5.2 | 14.8 | 0.00 | 0.00 | 0.00 | 100 | 1000.2 |
| 20260506235503 | 56 | 355 | 3.5 | 14.8 | 0.00 | 0.00 | 0.00 | 100 | 1000.1 |
| 20260506235003 | 56 | 336 | 3.5 | 13.0 | 0.00 | 0.00 | 0.00 | 100 | 1000.2 |
| 20260506233503 | 56 | 346 | 8.7 | 15.6 | 0.00 | 0.00 | 0.00 | 100 | 1000.1 |
| 20260506233004 | 56 | 307 | 4.3 | 13.9 | 0.00 | 0.00 | 0.00 | 100 | 1000.0 |
| 20260506232503 | 56 | 355 | 2.6 | 14.8 | 0.00 | 0.00 | 0.00 | 100 | 1000.1 |
| 20260506232002 | 56 | 333 | 7.0 | 16.5 | 0.00 | 0.00 | 0.00 | 100 | 1000.2 |
| 20260506231502 | 56 | 350 | 4.3 | 16.5 | 0.00 | 0.00 | 0.00 | 100 | 1000.1 |
| 20260506231003 | 56 | 312 | 2.6 | 13.9 | 0.00 | 0.00 | 0.00 | 100 | 999.9 |
| 20260506230502 | 56 | 288 | 8.7 | 15.6 | 0.00 | 0.00 | 0.00 | 100 | 1000.3 |
| 20260506230006 | 56 | 12 | 7.8 | 15.6 | 0.00 | 0.00 | 0.00 | 100 | 1000.0 |
| 20260506225502 | 56 | 320 | 7.0 | 13.0 | 0.00 | 0.00 | 0.00 | 100 | 999.8 |
| 20260506225002 | 56 | 347 | 7.8 | 13.0 | 0.00 | 0.00 | 0.00 | 100 | 1000.0 |
| 20260506224002 | 56 | 342 | 4.3 | 15.6 | 0.00 | 0.00 | 0.00 | 100 | 1000.0 |
| 20260506223502 | 56 | 327 | 7.8 | 12.2 | 0.00 | 0.00 | 0.00 | 100 | 1000.0 |
| 20260506223002 | 57 | 329 | 3.5 | 13.0 | 0.00 | 0.00 | 0.00 | 100 | 1000.1 |
| 20260506222502 | 57 | 342 | 10.4 | 13.9 | 0.00 | 0.00 | 0.00 | 100 | 1000.1 |
| 20260506221502 | 57 | 17 | 12.2 | 14.8 | 0.00 | 0.00 | 0.00 | 100 | 1000.2 |
| 20260506220502 | 57 | 344 | 7.0 | 15.6 | 0.00 | 0.00 | 0.00 | 100 | 1000.3 |
| 20260506220002 | 57 | 327 | 7.0 | 14.8 | 0.00 | 0.00 | 0.00 | 100 | 1000.3 |
| 20260506215003 | 57 | 300 | 14.8 | 14.8 | 0.00 | 0.00 | 0.00 | 100 | 1000.3 |
| 20260506214502 | 57 | 355 | 12.2 | 14.8 | 0.00 | 0.00 | 0.00 | 100 | 1000.3 |
| 20260506214002 | 57 | 360 | 10.4 | 14.8 | 0.00 | 0.00 | 0.00 | 100 | 1000.4 |
| 20260506213502 | 57 | 336 | 11.3 | 14.8 | 0.00 | 0.00 | 0.00 | 100 | 1000.3 |
| 20260506213002 | 57 | 341 | 3.5 | 14.8 | 0.00 | 0.00 | 0.00 | 100 | 1000.4 |
| 20260506212502 | 57 | 360 | 4.3 | 15.6 | 0.00 | 0.00 | 0.00 | 100 | 1000.5 |
| 20260506211002 | 57 | 9 | 1.7 | 13.9 | 0.00 | 0.00 | 0.00 | 100 | 1000.4 |
| 20260506210502 | 57 | 341 | 7.8 | 15.6 | 0.00 | 0.00 | 0.00 | 100 | 1000.3 |
| 20260506210003 | 57 | 346 | 7.0 | 15.6 | 0.00 | 0.00 | 0.00 | 100 | 1000.3 |
| 20260506205502 | 57 | 360 | 8.7 | 13.0 | 0.00 | 0.00 | 0.00 | 100 | 1000.3 |
| 20260506205002 | 57 | 344 | 5.2 | 18.2 | 0.00 | 0.00 | 0.00 | 100 | 1000.3 |
| 20260506204503 | 57 | 350 | 3.5 | 18.2 | 0.00 | 0.00 | 0.00 | 100 | 1000.0 |
| 20260506204002 | 57 | 337 | 7.8 | 14.8 | 0.00 | 0.00 | 0.00 | 100 | 1000.1 |
| 20260506203502 | 58 | 327 | 4.3 | 14.8 | 0.00 | 0.00 | 0.00 | 100 | 1000.1 |
| 20260506203002 | 58 | 338 | 5.2 | 14.8 | 0.00 | 0.00 | 0.00 | 100 | 1000.1 |
| 20260506202503 | 58 | 5 | 9.6 | 13.9 | 0.00 | 0.00 | 0.00 | 100 | 1000.1 |
| 20260506202002 | 58 | 340 | 2.6 | 12.2 | 0.00 | 0.00 | 0.00 | 100 | 1000.3 |
| 20260506201503 | 58 | 348 | 4.3 | 14.8 | 0.00 | 0.00 | 0.00 | 100 | 1000.2 |
| 20260506200502 | 58 | 311 | 7.8 | 13.9 | 0.00 | 0.00 | 0.00 | 100 | 1000.4 |
| 20260506200003 | 58 | 323 | 2.6 | 13.0 | 0.00 | 0.00 | 0.00 | 100 | 1000.3 |
| 20260506195502 | 58 | 319 | 2.6 | 13.0 | 0.00 | 0.00 | 0.00 | 100 | 1000.3 |
| 20260506195003 | 58 | 341 | 9.6 | 13.0 | 0.00 | 0.00 | 0.00 | 100 | 1000.2 |
| 20260506194502 | 58 | 336 | 8.7 | 12.2 | 0.00 | 0.00 | 0.00 | 100 | 1000.3 |
| 20260506194002 | 59 | 355 | 7.0 | 14.8 | 0.00 | 0.00 | 0.00 | 100 | 1000.2 |
| 20260506193502 | 59 | 340 | 8.7 | 14.8 | 0.00 | 0.00 | 0.00 | 100 | 1000.1 |
| 20260506193002 | 59 | 291 | 7.0 | 13.0 | 0.00 | 0.00 | 0.00 | 100 | 1000.1 |
| 20260506192502 | 59 | 339 | 7.8 | 12.2 | 0.00 | 0.00 | 0.00 | 100 | 999.9 |
| 20260506192003 | 59 | 12 | 8.7 | 13.0 | 0.00 | 0.00 | 0.00 | 100 | 1000.1 |
| 20260506191503 | 59 | 347 | 8.7 | 13.0 | 0.00 | 0.00 | 0.00 | 100 | 999.9 |
| 20260506191002 | 60 | 333 | 2.6 | 12.2 | 0.00 | 0.00 | 0.00 | 100 | 1000.0 |
| 20260506190502 | 60 | 308 | 8.7 | 11.3 | 0.00 | 0.00 | 0.00 | 100 | 1000.0 |
| 20260506190003 | 60 | 306 | 6.1 | 13.0 | 0.00 | 0.00 | 0.00 | 100 | 1000.0 |
| 20260506185503 | 60 | 331 | 5.2 | 13.0 | 0.00 | 0.00 | 0.00 | 100 | 1000.0 |
| 20260506185000 | 61 | 5 | 5.2 | 12.2 | 0.00 | 0.00 | 0.00 | 100 | 1000.0 |
| 20260506184500 | 61 | 327 | 3.5 | 11.3 | 0.00 | 0.00 | 0.00 | 100 | 1000.1 |
| 20260506184002 | 61 | 326 | 8.7 | 12.2 | 0.00 | 0.00 | 0.00 | 100 | 1000.0 |
| 20260506183500 | 61 | 329 | 3.5 | 12.2 | 0.00 | 0.00 | 0.00 | 100 | 1000.2 |
| 20260506183000 | 62 | 319 | 4.3 | 16.5 | 0.00 | 0.00 | 0.00 | 100 | 1000.0 |
| 20260506182000 | 62 | 320 | 7.0 | 13.9 | 0.00 | 0.00 | 0.00 | 100 | 999.9 |
| 20260506181500 | 62 | 341 | 8.7 | 13.9 | 0.00 | 0.00 | 0.00 | 100 | 1000.0 |
| 20260506181002 | 62 | 355 | 8.7 | 13.0 | 0.00 | 0.00 | 0.00 | 100 | 1000.0 |
| 20260506180500 | 62 | 348 | 7.0 | 12.2 | 0.00 | 0.00 | 0.00 | 100 | 1000.0 |
| 20260506180005 | 62 | 317 | 2.6 | 13.9 | 0.00 | 0.00 | 0.00 | 100 | 1000.1 |
| 20260506175502 | 62 | 315 | 3.5 | 14.8 | 0.00 | 0.00 | 0.00 | 100 | 1000.1 |
| 20260506174503 | 63 | 14 | 7.0 | 11.3 | 0.00 | 0.00 | 0.00 | 100 | 1000.1 |
| 20260506174002 | 63 | 304 | 7.0 | 13.9 | 0.00 | 0.00 | 0.00 | 100 | 1000.3 |
| 20260506173502 | 63 | 333 | 11.3 | 14.8 | 0.00 | 0.00 | 0.00 | 100 | 1000.3 |
| 20260506173002 | 64 | 314 | 3.5 | 12.2 | 0.00 | 0.00 | 0.00 | 100 | 1000.5 |
| 20260506172502 | 64 | 294 | 8.7 | 13.0 | 0.00 | 0.00 | 0.00 | 100 | 1000.3 |
| 20260506172002 | 64 | 318 | 9.6 | 13.0 | 0.00 | 0.00 | 0.00 | 100 | 1000.4 |
| 20260506171502 | 64 | 346 | 3.5 | 12.2 | 0.00 | 0.00 | 0.00 | 100 | 1000.4 |
| 20260506170503 | 65 | 319 | 3.5 | 13.0 | 0.00 | 0.00 | 0.00 | 100 | 1000.4 |
| 20260506170003 | 64 | 316 | 10.4 | 15.6 | 0.00 | 0.00 | 0.00 | 100 | 1000.3 |
| 20260506165503 | 64 | 12 | 2.6 | 14.8 | 0.00 | 0.00 | 0.00 | 100 | 1000.5 |
| 20260506165006 | 65 | 311 | 13.0 | 13.9 | 0.00 | 0.00 | 0.00 | 100 | 1000.5 |
| 20260506164502 | 65 | 336 | 9.6 | 16.5 | 0.00 | 0.00 | 0.00 | 100 | 1000.4 |
| 20260506164002 | 65 | 325 | 5.2 | 16.5 | 0.00 | 0.00 | 0.00 | 100 | 1000.5 |
| 20260506163503 | 65 | 355 | 0.9 | 16.5 | 0.00 | 0.00 | 0.00 | 100 | 1000.6 |
| 20260506163003 | 65 | 344 | 1.7 | 17.4 | 0.00 | 0.00 | 0.00 | 100 | 1000.7 |
| 20260506162502 | 65 | 284 | 7.8 | 17.4 | 0.00 | 0.00 | 0.00 | 100 | 1000.4 |
| 20260506162003 | 65 | 11 | 7.0 | 16.5 | 0.00 | 0.00 | 0.00 | 100 | 1000.5 |
| 20260506161503 | 65 | 342 | 7.0 | 14.8 | 0.00 | 0.00 | 0.00 | 100 | 1000.5 |
| 20260506161002 | 66 | 327 | 7.8 | 14.8 | 0.00 | 0.00 | 0.00 | 100 | 1000.6 |
| 20260506160502 | 66 | 308 | 6.1 | 17.4 | 0.00 | 0.00 | 0.00 | 100 | 1000.6 |
| 20260506160003 | 66 | 310 | 7.0 | 17.4 | 0.00 | 0.00 | 0.00 | 100 | 1000.5 |
| 20260506155503 | 66 | 324 | 11.3 | 18.2 | 0.00 | 0.00 | 0.00 | 100 | 1000.5 |
| 20260506155002 | 66 | 9 | 13.9 | 18.2 | 0.00 | 0.00 | 0.00 | 100 | 1000.5 |
| 20260506154502 | 66 | 322 | 9.6 | 14.8 | 0.00 | 0.00 | 0.00 | 100 | 1000.5 |
| 20260506154002 | 67 | 335 | 3.5 | 13.0 | 0.00 | 0.00 | 0.00 | 100 | 1000.6 |
| 20260506153003 | 66 | 325 | 9.6 | 19.1 | 0.00 | 0.00 | 0.00 | 100 | 1000.6 |
| 20260506152503 | 67 | 323 | 13.9 | 15.6 | 0.00 | 0.00 | 0.00 | 100 | 1000.7 |
| 20260506152003 | 67 | 314 | 8.7 | 14.8 | 0.00 | 0.00 | 0.00 | 100 | 1000.7 |
| 20260506151003 | 68 | 334 | 4.3 | 12.2 | 0.00 | 0.00 | 0.00 | 100 | 1000.8 |
| 20260506150502 | 68 | 335 | 5.2 | 14.8 | 0.00 | 0.00 | 0.00 | 100 | 1000.9 |
| 20260506145502 | 67 | 348 | 10.4 | 15.6 | 0.00 | 0.00 | 0.00 | 100 | 1001.1 |
| 20260506145002 | 66 | 314 | 8.7 | 15.6 | 0.00 | 0.00 | 0.00 | 100 | 1001.1 |
| 20260506144503 | 67 | 319 | 2.6 | 14.8 | 0.00 | 0.00 | 0.00 | 100 | 1001.1 |
| 20260506143503 | 67 | 327 | 4.3 | 13.9 | 0.00 | 0.00 | 0.00 | 100 | 1001.4 |
| 20260506143003 | 67 | 328 | 9.6 | 13.0 | 0.00 | 0.00 | 0.00 | 100 | 1001.6 |
| 20260506142502 | 68 | 13 | 10.4 | 13.9 | 0.00 | 0.00 | 0.00 | 100 | 1001.5 |
| 20260506142004 | 67 | 12 | 4.3 | 13.9 | 0.00 | 0.00 | 0.00 | 100 | 1001.6 |
| 20260506141502 | 67 | 342 | 4.3 | 13.9 | 0.00 | 0.00 | 0.00 | 100 | 1001.5 |
| 20260506141002 | 67 | 5 | 4.3 | 13.9 | 0.00 | 0.00 | 0.00 | 100 | 1001.6 |
| 20260506140503 | 67 | 309 | 2.6 | 13.0 | 0.00 | 0.00 | 0.00 | 100 | 1001.5 |
| 20260506140002 | 67 | 355 | 4.3 | 12.2 | 0.00 | 0.00 | 0.00 | 100 | 1001.7 |
| 20260506135503 | 67 | 300 | 7.0 | 13.0 | 0.00 | 0.00 | 0.00 | 100 | 1001.7 |
| 20260506134502 | 67 | 268 | 5.2 | 13.9 | 0.00 | 0.00 | 0.00 | 100 | 1001.7 |
| 20260506134002 | 67 | 259 | 6.1 | 13.9 | 0.00 | 0.00 | 0.00 | 100 | 1001.7 |
| 20260506133002 | 67 | 344 | 9.6 | 11.3 | 0.00 | 0.00 | 0.00 | 100 | 1001.8 |
| 20260506132502 | 67 | 9 | 4.3 | 13.0 | 0.00 | 0.00 | 0.00 | 100 | 1002.0 |
| 20260506132002 | 67 | 346 | 7.0 | 13.0 | 0.00 | 0.00 | 0.00 | 100 | 1001.9 |
| 20260506131503 | 67 | 279 | 7.8 | 11.3 | 0.00 | 0.00 | 0.00 | 100 | 1001.9 |
| 20260506131014 | 67 | 325 | 5.2 | 11.3 | 0.00 | 0.00 | 0.00 | 100 | 1001.9 |
| 20260506130503 | 67 | 342 | 2.6 | 11.3 | 0.00 | 0.00 | 0.00 | 100 | 1001.9 |
| 20260506130003 | 67 | 302 | 3.5 | 14.8 | 0.00 | 0.00 | 0.00 | 100 | 1001.9 |
| 20260506125500 | 66 | 327 | 7.8 | 14.8 | 0.00 | 0.00 | 0.00 | 100 | 1002.2 |
| 20260506125002 | 65 | 355 | 5.2 | 12.2 | 0.00 | 0.00 | 0.00 | 100 | 1002.2 |
| 20260506124500 | 65 | 325 | 8.7 | 13.9 | 0.00 | 0.00 | 0.00 | 100 | 1002.4 |
| 20260506123459 | 65 | 346 | 10.4 | 13.9 | 0.00 | 0.00 | 0.00 | 100 | 1002.4 |
| 20260506123000 | 65 | 347 | 9.6 | 10.4 | 0.00 | 0.00 | 0.00 | 100 | 1002.6 |
| 20260506122459 | 64 | 302 | 4.3 | 11.3 | 0.00 | 0.00 | 0.00 | 100 | 1002.5 |
| 20260506121500 | 63 | 290 | 2.6 | 15.6 | 0.00 | 0.00 | 0.00 | 100 | 1002.8 |
| 20260506121000 | 63 | 333 | 8.7 | 15.6 | 0.00 | 0.00 | 0.00 | 100 | 1002.9 |
| 20260506120000 | 63 | 345 | 7.0 | 13.9 | 0.00 | 0.00 | 0.00 | 100 | 1003.0 |
| 20260506115502 | 63 | 325 | 7.8 | 13.9 | 0.00 | 0.00 | 0.00 | 100 | 1002.9 |
| 20260506115002 | 63 | 347 | 7.0 | 13.0 | 0.00 | 0.00 | 0.00 | 100 | 1003.0 |
| 20260506114503 | 63 | 346 | 1.7 | 15.6 | 0.00 | 0.00 | 0.00 | 100 | 1003.2 |
| 20260506114003 | 63 | 329 | 8.7 | 15.6 | 0.00 | 0.00 | 0.00 | 100 | 1003.1 |
| 20260506113501 | 63 | 336 | 7.8 | 13.0 | 0.00 | 0.00 | 0.00 | 100 | 1003.1 |
| 20260506113004 | 63 | 319 | 8.7 | 13.0 | 0.00 | 0.00 | 0.00 | 100 | 1003.1 |
| 20260506112500 | 63 | 360 | 7.8 | 15.6 | 0.00 | 0.00 | 0.00 | 100 | 1003.1 |
| 20260506112000 | 63 | 336 | 5.2 | 15.6 | 0.00 | 0.00 | 0.00 | 100 | 1003.0 |
| 20260506111500 | 62 | 17 | 7.8 | 13.9 | 0.00 | 0.00 | 0.00 | 100 | 1003.0 |
| 20260506111000 | 62 | 351 | 4.3 | 14.8 | 0.00 | 0.00 | 0.00 | 100 | 1003.2 |
| 20260506110503 | 62 | 340 | 7.0 | 14.8 | 0.00 | 0.00 | 0.00 | 100 | 1003.3 |
| 20260506110002 | 63 | 317 | 4.3 | 13.9 | 0.00 | 0.00 | 0.00 | 100 | 1003.3 |
| 20260506105002 | 63 | 321 | 2.6 | 15.6 | 0.00 | 0.00 | 0.00 | 100 | 1003.2 |
| 20260506104003 | 63 | 346 | 1.7 | 12.2 | 0.00 | 0.00 | 0.00 | 100 | 1003.2 |
| 20260506103502 | 62 | 340 | 4.3 | 12.2 | 0.00 | 0.00 | 0.00 | 100 | 1003.2 |
| 20260506103003 | 62 | 311 | 5.2 | 14.8 | 0.00 | 0.00 | 0.00 | 100 | 1003.1 |
| 20260506102502 | 62 | 338 | 7.0 | 14.8 | 0.00 | 0.00 | 0.00 | 100 | 1003.1 |
| 20260506102002 | 61 | 336 | 2.6 | 13.0 | 0.00 | 0.00 | 0.00 | 100 | 1003.1 |
| 20260506101502 | 60 | 327 | 4.3 | 13.0 | 0.00 | 0.00 | 0.00 | 100 | 1003.4 |
| 20260506101002 | 60 | 347 | 5.2 | 10.4 | 0.00 | 0.00 | 0.00 | 100 | 1003.3 |
| 20260506100003 | 60 | 346 | 0.0 | 10.4 | 0.00 | 0.00 | 0.00 | 100 | 1003.3 |
| 20260506095500 | 60 | 343 | 8.7 | 14.8 | 0.00 | 0.00 | 0.00 | 100 | 1003.4 |
| 20260506095000 | 60 | 350 | 3.5 | 14.8 | 0.00 | 0.00 | 0.00 | 100 | 1003.3 |
| 20260506094500 | 60 | 360 | 5.2 | 10.4 | 0.00 | 0.00 | 0.00 | 100 | 1003.2 |
| 20260506093959 | 60 | 325 | 5.2 | 10.4 | 0.00 | 0.00 | 0.00 | 100 | 1003.3 |
| 20260506093459 | 60 | 301 | 1.7 | 9.6 | 0.00 | 0.00 | 0.00 | 100 | 1003.3 |
| 20260506093000 | 60 | 306 | 7.0 | 9.6 | 0.00 | 0.00 | 0.00 | 100 | 1003.2 |
| 20260506092459 | 60 | 313 | 9.6 | 9.6 | 0.00 | 0.00 | 0.00 | 100 | 1003.3 |
| 20260506091959 | 61 | 343 | 1.7 | 9.6 | 0.00 | 0.00 | 0.00 | 100 | 1003.4 |
| 20260506091500 | 61 | 327 | 2.6 | 11.3 | 0.00 | 0.00 | 0.00 | 100 | 1003.3 |
| 20260506091002 | 62 | 300 | 3.5 | 11.3 | 0.00 | 0.00 | 0.00 | 100 | 1003.2 |
| 20260506090459 | 63 | 317 | 2.6 | 8.7 | 0.00 | 0.00 | 0.00 | 100 | 1003.1 |
| 20260506090000 | 63 | 309 | 0.9 | 8.7 | 0.00 | 0.00 | 0.00 | 100 | 1003.0 |
| 20260506085500 | 63 | 342 | 4.3 | 9.6 | 0.00 | 0.00 | 0.00 | 100 | 1003.0 |
| 20260506084500 | 63 | 348 | 1.7 | 7.8 | 0.00 | 0.00 | 0.00 | 100 | 1003.0 |
| 20260506084003 | 63 | 349 | 0.0 | 9.6 | 0.00 | 0.00 | 0.00 | 100 | 1003.0 |
| 20260506083501 | 62 | 348 | 7.0 | 9.6 | 0.00 | 0.00 | 0.00 | 100 | 1003.0 |
| 20260506083000 | 62 | 336 | 3.5 | 8.7 | 0.00 | 0.00 | 0.00 | 100 | 1003.0 |
| 20260506082502 | 62 | 314 | 3.5 | 9.6 | 0.00 | 0.00 | 0.00 | 100 | 1003.1 |
| 20260506082000 | 61 | 355 | 8.7 | 9.6 | 0.00 | 0.00 | 0.00 | 100 | 1003.2 |
| 20260506081459 | 61 | 327 | 3.5 | 9.6 | 0.00 | 0.00 | 0.00 | 100 | 1003.2 |
| 20260506081000 | 61 | 335 | 4.3 | 9.6 | 0.00 | 0.00 | 0.00 | 100 | 1003.4 |
| 20260506080502 | 60 | 343 | 1.7 | 9.6 | 0.00 | 0.00 | 0.00 | 100 | 1003.3 |
| 20260506073502 | 59 | 345 | 2.6 | 8.7 | 0.00 | 0.00 | 0.00 | 100 | 1003.4 |
| 20260506073002 | 58 | 360 | 2.6 | 9.6 | 0.00 | 0.00 | 0.00 | 100 | 1003.3 |
| 20260506072500 | 58 | 340 | 2.6 | 9.6 | 0.00 | 0.00 | 0.00 | 100 | 1003.1 |
| 20260506072000 | 57 | 344 | 3.5 | 7.8 | 0.00 | 0.00 | 0.00 | 100 | 1003.1 |
| 20260506071501 | 57 | 346 | 3.5 | 5.2 | 0.00 | 0.00 | 0.00 | 100 | 1003.2 |
| 20260506071000 | 56 | 346 | 4.3 | 4.3 | 0.00 | 0.00 | 0.00 | 100 | 1003.3 |
| 20260506070503 | 56 | 321 | 0.9 | 1.7 | 0.00 | 0.00 | 0.00 | 100 | 1003.3 |